{"data":{"norad_id":48295,"intl_designator":"2021-036V","name":"STARLINK-2535","alt_names":[],"object_type":"PAYLOAD","status":"ACTIVE","operator":null,"country":"US","launch_date":"2021-04-29","launch_site_code":"AFETR","launch_vehicle":null,"mission":null,"orbit_class":"UNKNOWN","rcs_meters":null,"size_class":null,"mass_kg":null,"dimensions":null,"purposes":["comms"],"wikipedia_slug":null,"has_3d_model":false,"image_url":null,"decayed_at":null,"tle_current":{"epoch":"2026-09-19T16:30:14.242176Z","epoch_age_seconds":103917,"freshness":"FRESH","line1":"1 48295U 21036V   26262.68766484 -.00000503  00000+0 -44560-5 0  9990","line2":"2 48295  53.1594 252.6912 0001023  88.0287 272.0832 15.31701045298137","mean_motion":15.31701045,"eccentricity":0.0001023,"inclination_deg":53.1594,"raan_deg":252.6912,"arg_perigee_deg":88.0287,"mean_anomaly_deg":272.0832,"bstar":-4.456e-6,"rev_number":29813,"period_min":94.013123820778,"perigee_km":470.03624033886,"apogee_km":471.43751993473,"semimajor_km":6848.8738801368,"source":"CELESTRAK","updated_at":"2026-09-20T09:00:38.931002Z"}}}